Cloud_Cover
5 2 0 1 0 2 0 1 5 4 5 47 15 57 58 17 6 12 95 100 100 31 15 48 100 70 5 5 5 5 29 95 100 100 100 100 30 100
0 0 0 4 4 5 5 29 80 75 25 10 90 7 1 3 23 99 94 100 100 100 92 100 56 12 8 17 5 23 52 37 37 30 15 17 61 100
0 3 5 9 5 5 6 5 5 1 4 100 100 95 26 5 5 9 99 100 100 100 100 100 100 100 99 100 56 6 5 60 100 100 5 3 4 14
0 0 0 5 3 5 5 1 2 0 0 3 100 100 100 95 98 98 43 5 24 100 100 100 100 100 100 89 72 32 8 31 90 40 5 5 4 5
1 5 5 5 5 5 5 20 5 2 0 0 3 2 2 4 4 100 100 99 99 71 19 5 6 16 73 86 100 100 100 100 98 94 41 22 12 87
5 29 5 5 5 36 24 12 9 4 0 0 5 3 0 0 70 100 100 27 100 87 4 4 64 11 11 2 100 100 100 100 100 100 100 100 100 70
6 16 18 94 91 6 5 6 4 0 1 0 1 1 0 0 1 60 98 100 50 2 0 10 29 55 63 79 96 100 100 100 100 100 100 100 100 100
53 100 66 98 67 9 19 60 5 6 5 1 21 43 0 0 0 0 43 61 32 0 0 0 52 79 16 99 97 100 100 100 100 100 100 100 100 100
5 5 23 5 5 81 10 5 5 0 0 4 0 4 0 0 0 0 0 0 0 0 0 26 13 98 100 24 100 100 100 100 100 100 100 100 100 98
1 5 6 60 5 5 0 4 15 4 2 0 0 13 34 0 0 0 0 0 1 4 3 33 100 86 14 7 98 55 99 100 100 100 100 100 100 100
1 0 3 29 0 0 0 0 3 1 1 0 0 0 0 0 0 0 0 3 77 86 100 100 100 100 100 100 86 6 5 5 56 100 100 100 21 5
0 0 0 0 5 4 2 0 0 0 0 0 0 0 0 0 0 2 2 93 100 100 100 100 100 100 100 100 100 86 5 2 4 2 5 0 0 0
0 4 0 1 3 2 0 0 0 0 0 0 0 0 0 0 5 86 44 81 100 100 100 100 100 100 100 100 100 100 51 5 0 1 0 0 0 0
0 0 0 0 0 0 0 0 0 0 0 0 0 0 0 0 4 59 49 91 100 100 100 100 100 100 100 100 79 12 5 5 4 2 3 4 0 0
0 0 0 0 0 0 0 0 0 0 0 0 0 0 0 0 5 5 6 58 98 99 100 100 100 100 100 100 100 67 5 5 5 5 0 5 5 8
5 3 0 0 0 0 0 0 0 0 0 0 0 0 0 0 0 5 43 5 97 100 100 100 100 100 100 100 31 6 38 74 47 6 5 0 8 5
16 5 0 0 4 5 3 0 0 0 0 0 0 1 16 5 4 2 5 75 61 74 100 100 100 99 54 10 14 32 39 16 3 2 5 5 5 5
81 5 5 0 5 5 2 0 0 0 0 0 0 0 0 5 5 28 36 15 70 54 23 32 66 18 33 95 42 69 92 100 75 3 4 5 5 5
6 5 5 63 6 5 0 5 0 0 0 0 0 0 0 5 11 6 5 16 5 5 5 6 54 6 14 54 100 100 100 100 38 5 0 1 5 2
87 71 90 9 21 28 5 4 5 5 5 0 1 6 3 3 5 5 6 22 86 100 75 38 92 13 40 100 83 97 71 100 100 92 17 6 6 6
83 33 99 100 100 100 100 93 39 5 5 66 57 96 100 40 5 5 5 5 17 62 86 34 32 60 100 92 99 34 9 92 100 100 100 100 100 100
100 100 100 100 100 100 100 100 100 98 96 86 93 90 100 100 100 49 32 98 47 16 5 13 56 71 76 56 90 61 5 8 69 100 100 100 100 100
94 100 86 100 100 86 100 100 100 97 100 100 100 100 94 100 100 100 100 100 100 94 77 5 75 41 5 73 38 76 100 74 8 26 100 100 72 99